{"data":{"norad_id":64917,"intl_designator":"2025-157P","name":"STARLINK-34653","alt_names":[],"object_type":"PAYLOAD","status":"ACTIVE","operator":null,"country":"US","launch_date":"2025-07-26","launch_site_code":"AFETR","launch_vehicle":null,"mission":null,"orbit_class":"UNKNOWN","rcs_meters":null,"size_class":null,"mass_kg":null,"dimensions":null,"purposes":["comms"],"wikipedia_slug":null,"has_3d_model":false,"image_url":null,"decayed_at":null,"tle_current":{"epoch":"2026-05-24T23:33:22.477824Z","epoch_age_seconds":76652,"freshness":"FRESH","line1":"1 64917U 25157P   26144.98151016  .00029708  00000+0  96478-3 0  9997","line2":"2 64917  53.1605 351.3506 0001232  86.4550 273.6592 15.31716096 47754","mean_motion":15.31716096,"eccentricity":0.0001232,"inclination_deg":53.1605,"raan_deg":351.3506,"arg_perigee_deg":86.455,"mean_anomaly_deg":273.6592,"bstar":0.00096478,"rev_number":4775,"period_min":94.012200025872,"perigee_km":469.84823857283,"apogee_km":471.53579004195,"semimajor_km":6848.8290143074,"source":"CELESTRAK","updated_at":"2026-05-25T13:38:20.622933Z"}}}